Location: Unspecified
(0.0000°N, 0.0000°E)
Time: 15:22:26
(UTC+00:00)

FENGYUN 1C DEB - Pass Details

Date: 17 February 2026
Orbit: 814 x 927 km, 98.2° (Epoch: 15 July)

Event Time Altitude Azimuth Distance (km) Brightness Sun altitude
Rises 19:41:54 0° 181° (S) 3,390 ? -21.5°
Reaches altitude 10° 19:44:21 10° 188° (S) 2,464 ? -22.1°
Maximum altitude 19:49:30 43° 258° (WSW) 1,189 ? -23.4°
Drops below altitude 10° 19:54:44 10° 328° (NNW) 2,501 ? -24.6°
Sets 19:57:15 0° 335° (NNW) 3,445 ? -25.2°
